CPA474 VHHH-RCTP

Flight info

Callsign CPA474
Flight time 1h 8m
Altitude 37000
Route DALOL V631 ENVAR M750 EXTRA/N0477F290 M750 TONGA TONGA1A
Aircraft A343/H-SDE2E3FGHIJ4J5M1RWXY/LB1D1

Departure

Time 2026-05-04 21:58
Airport Hong Kong International Airport (VHHH)

Arrival

Time 2026-05-04 23:07
Airport Taiwan Taoyuan International Airport (RCTP)
Time Latitude Longitude Altitude Speed Heading
2026-05-04 21:18 22.31257 113.92844 36 ft 0 kts 341°
2026-05-04 21:45 22.31242 113.92849 35 ft 4 kts 341°
2026-05-04 21:45 22.31216 113.92859 35 ft 4 kts 341°
2026-05-04 21:45 22.31196 113.92866 34 ft 4 kts 332°
2026-05-04 21:45 22.31178 113.92884 36 ft 4 kts 284°
2026-05-04 21:46 22.31179 113.92910 36 ft 3 kts 251°
2026-05-04 21:46 22.31187 113.92937 33 ft 3 kts 251°
2026-05-04 21:46 22.31188 113.92940 33 ft 0 kts 251°
2026-05-04 21:50 22.31187 113.92935 33 ft 2 kts 251°
2026-05-04 21:50 22.31180 113.92914 36 ft 4 kts 249°
2026-05-04 21:50 22.31152 113.92884 36 ft 7 kts 211°
2026-05-04 21:50 22.31099 113.92855 36 ft 10 kts 206°
2026-05-04 21:51 22.31025 113.92816 36 ft 13 kts 206°
2026-05-04 21:51 22.30933 113.92768 36 ft 16 kts 206°
2026-05-04 21:51 22.30855 113.92727 36 ft 11 kts 210°
2026-05-04 21:51 22.30817 113.92651 36 ft 14 kts 250°
2026-05-04 21:52 22.30781 113.92540 36 ft 17 kts 250°
2026-05-04 21:52 22.30739 113.92411 36 ft 19 kts 250°
2026-05-04 21:52 22.30692 113.92266 36 ft 21 kts 251°
2026-05-04 21:52 22.30642 113.92107 36 ft 23 kts 251°
2026-05-04 21:53 22.30587 113.91936 36 ft 25 kts 251°
2026-05-04 21:53 22.30528 113.91752 36 ft 27 kts 251°
2026-05-04 21:53 22.30466 113.91561 36 ft 28 kts 250°
2026-05-04 21:53 22.30400 113.91359 36 ft 29 kts 251°
2026-05-04 21:54 22.30332 113.91148 36 ft 30 kts 251°
2026-05-04 21:54 22.30262 113.90929 36 ft 31 kts 251°
2026-05-04 21:54 22.30190 113.90705 36 ft 32 kts 251°
2026-05-04 21:54 22.30116 113.90478 36 ft 32 kts 251°
2026-05-04 21:55 22.30043 113.90251 36 ft 26 kts 251°
2026-05-04 21:55 22.29991 113.90089 36 ft 23 kts 251°
2026-05-04 21:55 22.29937 113.89921 36 ft 24 kts 251°
2026-05-04 21:55 22.29895 113.89790 36 ft 14 kts 251°
2026-05-04 21:56 22.29831 113.89733 36 ft 13 kts 174°
2026-05-04 21:56 22.29744 113.89763 36 ft 14 kts 161°
2026-05-04 21:56 22.29652 113.89798 34 ft 10 kts 160°
2026-05-04 21:56 22.29631 113.89837 34 ft 5 kts 75°
2026-05-04 21:57 22.29635 113.89851 34 ft 0 kts 71°
2026-05-04 21:57 22.29637 113.89856 34 ft 2 kts 71°
2026-05-04 21:57 22.29678 113.89986 34 ft 46 kts 71°
2026-05-04 21:57 22.29856 113.90534 35 ft 106 kts 71°
2026-05-04 21:58 22.30150 113.91447 38 ft 152 kts 71°
2026-05-04 21:58 22.30526 113.92545 643 ft 150 kts 72°
2026-05-04 21:58 22.30880 113.93624 1188 ft 159 kts 74°
2026-05-04 21:58 22.31256 113.94866 1580 ft 186 kts 75°
2026-05-04 21:59 22.31659 113.96265 2128 ft 205 kts 75°
2026-05-04 21:59 22.32120 113.97758 2991 ft 213 kts 72°
2026-05-04 21:59 22.32632 113.99301 3779 ft 225 kts 71°
2026-05-04 21:59 22.33186 114.00939 4539 ft 237 kts 70°
2026-05-04 22:00 22.33681 114.02660 5431 ft 242 kts 78°
2026-05-04 22:00 22.33745 114.04490 6312 ft 248 kts 100°
2026-05-04 22:00 22.33154 114.06243 7160 ft 251 kts 124°
2026-05-04 22:00 22.31980 114.07614 8065 ft 250 kts 146°
2026-05-04 22:01 22.30431 114.08493 8838 ft 256 kts 165°
2026-05-04 22:01 22.28666 114.08800 9648 ft 259 kts 182°
2026-05-04 22:01 22.26818 114.08794 10233 ft 275 kts 184°
2026-05-04 22:01 22.24820 114.08740 10603 ft 298 kts 184°
2026-05-04 22:02 22.22669 114.08693 10946 ft 319 kts 182°
2026-05-04 22:02 22.20373 114.08664 11267 ft 340 kts 181°
2026-05-04 22:02 22.17968 114.09019 11624 ft 359 kts 164°
2026-05-04 22:02 22.15769 114.10323 12187 ft 376 kts 143°
2026-05-04 22:03 22.14081 114.12536 12804 ft 389 kts 122°
2026-05-04 22:03 22.12822 114.15146 13475 ft 395 kts 118°
2026-05-04 22:03 22.11604 114.17831 14061 ft 402 kts 118°
2026-05-04 22:03 22.10351 114.20555 14603 ft 408 kts 118°
2026-05-04 22:04 22.09069 114.23299 15245 ft 410 kts 118°
2026-05-04 22:04 22.07563 114.25905 15909 ft 411 kts 131°
2026-05-04 22:04 22.05476 114.28007 16543 ft 412 kts 144°
2026-05-04 22:04 22.03158 114.29863 17183 ft 417 kts 146°
2026-05-04 22:05 22.00790 114.31707 17860 ft 421 kts 146°
2026-05-04 22:05 21.98402 114.33570 18485 ft 425 kts 146°
2026-05-04 22:05 21.96000 114.35451 18982 ft 430 kts 146°
2026-05-04 22:05 21.93576 114.37359 19517 ft 434 kts 146°
2026-05-04 22:06 21.91161 114.39257 20036 ft 438 kts 147°
2026-05-04 22:06 21.88692 114.41228 20505 ft 444 kts 146°
2026-05-04 22:06 21.86419 114.43531 20989 ft 455 kts 134°
2026-05-04 22:06 21.84604 114.46353 21473 ft 465 kts 121°
2026-05-04 22:07 21.83375 114.49612 21959 ft 473 kts 109°
2026-05-04 22:07 21.82464 114.53040 22433 ft 478 kts 107°
2026-05-04 22:07 21.81589 114.56522 22897 ft 483 kts 107°
2026-05-04 22:07 21.80703 114.60023 23347 ft 488 kts 107°
2026-05-04 22:08 21.79800 114.63559 23748 ft 492 kts 107°
2026-05-04 22:08 21.78887 114.67112 24200 ft 493 kts 107°
2026-05-04 22:08 21.77967 114.70675 24602 ft 497 kts 107°
2026-05-04 22:08 21.77047 114.74229 24972 ft 500 kts 107°
2026-05-04 22:09 21.76108 114.77847 25357 ft 504 kts 107°
2026-05-04 22:09 21.75168 114.81494 25740 ft 508 kts 106°
2026-05-04 22:09 21.74494 114.85242 26108 ft 513 kts 97°
2026-05-04 22:09 21.74274 114.89084 26486 ft 516 kts 92°
2026-05-04 22:10 21.74215 114.92955 26854 ft 520 kts 90°
2026-05-04 22:10 21.74232 114.96852 27217 ft 523 kts 89°
2026-05-04 22:10 21.74274 115.00784 27588 ft 526 kts 89°
2026-05-04 22:10 21.74313 115.04738 27920 ft 530 kts 89°
2026-05-04 22:11 21.74340 115.08713 28290 ft 532 kts 89°
2026-05-04 22:11 21.74353 115.12701 28629 ft 535 kts 90°
2026-05-04 22:11 21.74356 115.16723 28964 ft 538 kts 90°
2026-05-04 22:11 21.74352 115.20759 29280 ft 541 kts 90°
2026-05-04 22:12 21.74348 115.24765 29594 ft 544 kts 90°
2026-05-04 22:12 21.74339 115.28849 29906 ft 547 kts 90°
2026-05-04 22:12 21.74328 115.32949 30180 ft 549 kts 90°
2026-05-04 22:12 21.74316 115.37088 30422 ft 553 kts 90°
2026-05-04 22:13 21.74303 115.41221 30765 ft 552 kts 90°
2026-05-04 22:13 21.74290 115.45351 31166 ft 551 kts 90°
2026-05-04 22:13 21.74276 115.49470 31542 ft 550 kts 90°
2026-05-04 22:13 21.74262 115.53584 31908 ft 550 kts 90°
2026-05-04 22:14 21.74248 115.57689 32272 ft 549 kts 90°
2026-05-04 22:14 21.74230 115.61743 32627 ft 548 kts 90°
2026-05-04 22:14 21.74214 115.65842 32975 ft 548 kts 90°
2026-05-04 22:14 21.74198 115.69931 33360 ft 546 kts 90°
2026-05-04 22:15 21.74182 115.74013 33729 ft 545 kts 90°
2026-05-04 22:15 21.74165 115.78099 34066 ft 545 kts 90°
2026-05-04 22:15 21.74147 115.82170 34363 ft 544 kts 90°
2026-05-04 22:15 21.74127 115.86232 34674 ft 542 kts 90°
2026-05-04 22:16 21.74106 115.90286 34983 ft 541 kts 90°
2026-05-04 22:16 21.74084 115.94330 35275 ft 540 kts 90°
2026-05-04 22:16 21.74061 115.98367 35570 ft 539 kts 90°
2026-05-04 22:16 21.74037 116.02397 35849 ft 539 kts 90°
2026-05-04 22:17 21.74012 116.06418 36149 ft 538 kts 90°
2026-05-04 22:17 21.73986 116.10442 36424 ft 537 kts 90°
2026-05-04 22:17 21.73960 116.14450 36700 ft 536 kts 90°
2026-05-04 22:17 21.73932 116.18457 36943 ft 536 kts 90°
2026-05-04 22:18 21.73904 116.22479 36998 ft 537 kts 90°
2026-05-04 22:18 21.73844 116.30444 36999 ft 534 kts 90°
2026-05-04 22:19 21.73781 116.38425 36998 ft 534 kts 90°
2026-05-04 22:19 21.73714 116.46414 37004 ft 534 kts 90°
2026-05-04 22:20 21.73643 116.54404 37005 ft 534 kts 90°
2026-05-04 22:20 21.73568 116.62391 37003 ft 534 kts 90°
2026-05-04 22:21 21.73489 116.70372 36998 ft 534 kts 90°
2026-05-04 22:21 21.73846 116.78325 37000 ft 531 kts 77°
2026-05-04 22:22 21.76007 116.85841 36999 ft 530 kts 67°
2026-05-04 22:22 21.78668 116.93247 36999 ft 531 kts 65°
2026-05-04 22:23 21.81396 117.00630 36998 ft 531 kts 65°
2026-05-04 22:23 21.84099 117.08030 36998 ft 531 kts 66°
2026-05-04 22:24 21.86776 117.15440 37004 ft 531 kts 66°
2026-05-04 22:24 21.89445 117.22860 37004 ft 531 kts 66°
2026-05-04 22:25 21.92105 117.30267 37001 ft 530 kts 66°
2026-05-04 22:25 21.94763 117.37678 37009 ft 531 kts 66°
2026-05-04 22:26 21.97415 117.45080 37007 ft 533 kts 66°
2026-05-04 22:26 22.00533 117.52277 37003 ft 528 kts 56°
2026-05-04 22:27 22.04288 117.59097 37009 ft 528 kts 54°
2026-05-04 22:27 22.08137 117.65837 37004 ft 528 kts 54°
2026-05-04 22:28 22.11986 117.72576 37009 ft 528 kts 54°
2026-05-04 22:28 22.15821 117.79331 37017 ft 528 kts 54°
2026-05-04 22:29 22.19652 117.86103 37007 ft 529 kts 54°
2026-05-04 22:29 22.23489 117.92900 37006 ft 530 kts 54°
2026-05-04 22:30 22.27302 117.99663 37010 ft 530 kts 54°
2026-05-04 22:30 22.31179 118.06439 37023 ft 529 kts 53°
2026-05-04 22:31 22.35125 118.13152 37010 ft 528 kts 53°
2026-05-04 22:31 22.39059 118.19858 37017 ft 528 kts 53°
2026-05-04 22:32 22.42304 118.25460 37011 ft 530 kts 54°
2026-05-04 22:32 22.46157 118.32270 37011 ft 531 kts 54°
2026-05-04 22:33 22.49999 118.39094 37012 ft 530 kts 54°
2026-05-04 22:33 22.53840 118.45905 37012 ft 530 kts 54°
2026-05-04 22:34 22.57659 118.52671 37010 ft 530 kts 54°
2026-05-04 22:34 22.61531 118.59461 37008 ft 530 kts 54°
2026-05-04 22:35 22.65401 118.66249 37015 ft 530 kts 54°
2026-05-04 22:35 22.69264 118.73040 37013 ft 530 kts 54°
2026-05-04 22:36 22.73128 118.79845 37013 ft 530 kts 54°
2026-05-04 22:36 22.76961 118.86606 37013 ft 530 kts 54°
2026-05-04 22:37 22.80816 118.93413 37025 ft 530 kts 54°
2026-05-04 22:37 22.84675 119.00235 37011 ft 531 kts 54°
2026-05-04 22:38 22.88536 119.07072 37010 ft 531 kts 54°
2026-05-04 22:38 22.92388 119.13903 37009 ft 531 kts 54°
2026-05-04 22:39 22.96237 119.20735 37009 ft 531 kts 54°
2026-05-04 22:39 23.00089 119.27582 37001 ft 530 kts 55°
2026-05-04 22:40 23.03915 119.34392 37008 ft 532 kts 54°
2026-05-04 22:40 23.07777 119.41274 37005 ft 533 kts 54°
2026-05-04 22:41 23.11632 119.48155 37003 ft 533 kts 54°
2026-05-04 22:41 23.15490 119.54990 36987 ft 532 kts 52°
2026-05-04 22:41 23.17764 119.58124 37004 ft 524 kts 41°
2026-05-04 22:42 23.20487 119.60697 37003 ft 514 kts 29°
2026-05-04 22:42 23.26553 119.64681 37016 ft 509 kts 23°
2026-05-04 22:42 23.29629 119.66601 36834 ft 509 kts 23°
2026-05-04 22:43 23.32704 119.68525 36595 ft 511 kts 23°
2026-05-04 22:43 23.35783 119.70458 36352 ft 512 kts 23°
2026-05-04 22:43 23.38874 119.72403 36111 ft 513 kts 23°
2026-05-04 22:43 23.41971 119.74354 35873 ft 514 kts 23°
2026-05-04 22:44 23.45070 119.76309 35635 ft 515 kts 23°
2026-05-04 22:44 23.48173 119.78269 35407 ft 516 kts 23°
2026-05-04 22:44 23.51256 119.80305 34815 ft 520 kts 25°
2026-05-04 22:44 23.54319 119.82433 34078 ft 524 kts 25°
2026-05-04 22:45 23.57398 119.84580 33170 ft 525 kts 26°
2026-05-04 22:45 23.63579 119.88865 31415 ft 533 kts 26°
2026-05-04 22:45 23.66736 119.91046 30500 ft 538 kts 26°
2026-05-04 22:46 23.69914 119.93241 29479 ft 543 kts 27°
2026-05-04 22:46 23.73103 119.95446 28773 ft 540 kts 27°
2026-05-04 22:46 23.76262 119.97632 28153 ft 535 kts 27°
2026-05-04 22:46 23.79390 119.99797 27522 ft 530 kts 27°
2026-05-04 22:47 23.82501 120.01950 26901 ft 526 kts 27°
2026-05-04 22:47 23.85582 120.04082 26289 ft 521 kts 27°
2026-05-04 22:47 23.88596 120.06168 25664 ft 517 kts 27°
2026-05-04 22:47 23.91617 120.08261 25041 ft 512 kts 28°
2026-05-04 22:48 23.94569 120.10311 24431 ft 490 kts 28°
2026-05-04 22:48 23.97413 120.12287 23845 ft 480 kts 28°
2026-05-04 22:48 24.00240 120.14244 23183 ft 479 kts 28°
2026-05-04 22:48 24.03042 120.16186 22554 ft 475 kts 28°
2026-05-04 22:49 24.05824 120.18117 21981 ft 471 kts 28°
2026-05-04 22:49 24.08583 120.20034 21396 ft 467 kts 28°
2026-05-04 22:49 24.11315 120.21933 20810 ft 463 kts 28°
2026-05-04 22:49 24.14024 120.23820 20219 ft 460 kts 28°
2026-05-04 22:50 24.16716 120.25692 19652 ft 457 kts 28°
2026-05-04 22:50 24.19391 120.27554 19097 ft 453 kts 28°
2026-05-04 22:50 24.22038 120.29397 18533 ft 450 kts 28°
2026-05-04 22:50 24.24644 120.31213 17936 ft 447 kts 28°
2026-05-04 22:51 24.27262 120.33038 17358 ft 443 kts 28°
2026-05-04 22:51 24.29852 120.34845 16770 ft 439 kts 29°
2026-05-04 22:51 24.32415 120.36634 16235 ft 435 kts 29°
2026-05-04 22:51 24.34951 120.38406 15686 ft 430 kts 29°
2026-05-04 22:52 24.37465 120.40162 15126 ft 426 kts 29°
2026-05-04 22:52 24.39960 120.41906 14595 ft 423 kts 29°
2026-05-04 22:52 24.42434 120.43636 14066 ft 420 kts 29°
2026-05-04 22:52 24.44895 120.45358 13470 ft 414 kts 29°
2026-05-04 22:53 24.47288 120.47034 12937 ft 405 kts 30°
2026-05-04 22:53 24.49656 120.48692 12400 ft 402 kts 30°
2026-05-04 22:53 24.52003 120.50337 11886 ft 399 kts 30°
2026-05-04 22:53 24.54312 120.51954 11374 ft 396 kts 30°
2026-05-04 22:54 24.56599 120.53559 11212 ft 382 kts 30°
2026-05-04 22:54 24.58794 120.55102 11082 ft 367 kts 30°
2026-05-04 22:54 24.60915 120.56593 10976 ft 356 kts 30°
2026-05-04 22:54 24.62950 120.58022 10922 ft 345 kts 30°
2026-05-04 22:55 24.64926 120.59413 10735 ft 329 kts 30°
2026-05-04 22:55 24.66808 120.60748 10439 ft 319 kts 31°
2026-05-04 22:55 24.68554 120.62261 10069 ft 321 kts 39°
2026-05-04 22:55 24.70221 120.63883 9762 ft 318 kts 39°
2026-05-04 22:56 24.71864 120.65503 9426 ft 317 kts 40°
2026-05-04 22:56 24.73498 120.67115 9106 ft 315 kts 40°
2026-05-04 22:56 24.75127 120.68719 8771 ft 313 kts 40°
2026-05-04 22:56 24.76744 120.70311 8419 ft 311 kts 40°
2026-05-04 22:57 24.78354 120.71896 8096 ft 309 kts 40°
2026-05-04 22:57 24.79950 120.73466 7819 ft 305 kts 40°
2026-05-04 22:57 24.81500 120.74993 7623 ft 292 kts 41°
2026-05-04 22:57 24.82974 120.76446 7314 ft 278 kts 41°
2026-05-04 22:58 24.84395 120.77846 6891 ft 271 kts 41°
2026-05-04 22:58 24.85793 120.79224 6548 ft 269 kts 41°
2026-05-04 22:58 24.87178 120.80587 6237 ft 270 kts 41°
2026-05-04 22:58 24.88577 120.81966 5885 ft 271 kts 42°
2026-05-04 22:59 24.89987 120.83357 5498 ft 273 kts 41°
2026-05-04 22:59 24.91385 120.84737 5311 ft 266 kts 41°
2026-05-04 22:59 24.92702 120.86124 5144 ft 257 kts 53°
2026-05-04 22:59 24.93279 120.87903 5003 ft 244 kts 93°
2026-05-04 23:00 24.92896 120.89672 4894 ft 237 kts 114°
2026-05-04 23:00 24.92341 120.91396 4770 ft 239 kts 109°
2026-05-04 23:00 24.91944 120.93159 4623 ft 239 kts 103°
2026-05-04 23:00 24.91680 120.94963 4474 ft 239 kts 99°
2026-05-04 23:01 24.91495 120.96796 4351 ft 243 kts 97°
2026-05-04 23:01 24.91351 120.98673 4209 ft 249 kts 97°
2026-05-04 23:01 24.91477 121.00583 4057 ft 255 kts 74°
2026-05-04 23:01 24.92220 121.02353 3995 ft 254 kts 58°
2026-05-04 23:02 24.93276 121.03863 3977 ft 246 kts 49°
2026-05-04 23:02 24.94396 121.05255 3915 ft 243 kts 48°
2026-05-04 23:02 24.95513 121.06680 3632 ft 248 kts 51°
2026-05-04 23:02 24.96642 121.08124 3271 ft 247 kts 49°
2026-05-04 23:03 24.97745 121.09519 2897 ft 234 kts 49°
2026-05-04 23:03 24.98774 121.10823 2584 ft 215 kts 48°
2026-05-04 23:03 24.99702 121.12001 2364 ft 192 kts 48°
2026-05-04 23:03 25.00539 121.13062 2103 ft 176 kts 48°
2026-05-04 23:04 25.01325 121.14055 1861 ft 168 kts 47°
2026-05-04 23:04 25.02072 121.15001 1660 ft 160 kts 47°
2026-05-04 23:04 25.02790 121.15909 1436 ft 154 kts 47°
2026-05-04 23:04 25.03475 121.16775 1250 ft 149 kts 49°
2026-05-04 23:05 25.04141 121.17618 1055 ft 142 kts 49°
2026-05-04 23:05 25.04775 121.18423 874 ft 136 kts 49°
2026-05-04 23:05 25.05382 121.19192 687 ft 130 kts 49°
2026-05-04 23:05 25.05967 121.19934 560 ft 127 kts 49°
2026-05-04 23:06 25.06558 121.20659 384 ft 126 kts 49°
2026-05-04 23:06 25.07121 121.21385 208 ft 122 kts 50°
2026-05-04 23:06 25.07665 121.22075 107 ft 106 kts 49°
2026-05-04 23:06 25.08029 121.22538 106 ft 54 kts 49°
2026-05-04 23:07 25.08190 121.22744 105 ft 31 kts 49°
2026-05-04 23:07 25.08325 121.22918 105 ft 30 kts 49°
2026-05-04 23:07 25.08426 121.23110 106 ft 27 kts 73°
2026-05-04 23:07 25.08459 121.23279 105 ft 18 kts 79°
2026-05-04 23:08 25.08486 121.23407 106 ft 17 kts 71°
2026-05-04 23:08 25.08540 121.23509 105 ft 15 kts 49°
2026-05-04 23:08 25.08603 121.23589 107 ft 13 kts 49°
2026-05-04 23:08 25.08658 121.23660 107 ft 12 kts 49°
2026-05-04 23:09 25.08708 121.23724 105 ft 10 kts 49°
2026-05-04 23:09 25.08739 121.23791 105 ft 10 kts 90°
2026-05-04 23:09 25.08701 121.23848 106 ft 11 kts 138°
2026-05-04 23:09 25.08628 121.23918 105 ft 16 kts 139°
2026-05-04 23:10 25.08531 121.24010 105 ft 20 kts 139°
2026-05-04 23:10 25.08414 121.24121 105 ft 24 kts 139°
2026-05-04 23:10 25.08281 121.24246 106 ft 27 kts 139°
2026-05-04 23:10 25.08148 121.24372 105 ft 24 kts 139°
2026-05-04 23:11 25.08063 121.24453 107 ft 11 kts 139°
2026-05-04 23:11 25.08004 121.24465 105 ft 8 kts 207°
2026-05-04 23:11 25.07966 121.24421 105 ft 8 kts 228°
2026-05-04 23:11 25.07921 121.24364 106 ft 12 kts 229°
2026-05-04 23:12 25.07881 121.24288 106 ft 10 kts 271°
2026-05-04 23:12 25.07916 121.24239 106 ft 7 kts 318°
2026-05-04 23:12 25.07950 121.24205 107 ft 6 kts 319°
2026-05-04 23:12 25.07977 121.24177 106 ft 5 kts 309°
2026-05-04 23:13 25.07983 121.24137 105 ft 7 kts 260°
2026-05-04 23:13 25.07951 121.24085 107 ft 8 kts 233°
2026-05-04 23:13 25.07956 121.24042 105 ft 5 kts 305°
2026-05-04 23:13 25.07994 121.24004 105 ft 8 kts 318°
2026-05-04 23:14 25.08022 121.23977 105 ft 4 kts 319°
2026-05-04 23:14 25.08034 121.23966 105 ft 1 kts 319°
2026-05-04 23:14 25.08034 121.23965 107 ft 0 kts 319°